• In Uzbekistan
  • List of Countries
  • For 7 days
  • Water Temperature
  • Satellite Maps
  • Weather Map
  • Weather Widgets
  • user-avatar
    Login

    Hourly Weather Andora

    Today, 26 March, Sunday

    Time Temperature Precipitation Wind Pressure Humidity
    00:00 -6°C° 0 mm 2 mps 620 mmHg 90%
    01:00 -6°C° 0 mm 2 mps 620 mmHg 90%
    02:00 -6°C° 0 mm 2 mps 620 mmHg 90%
    03:00 -6°C° 0 mm 2 mps 620 mmHg 90%
    04:00 -6°C° 0 mm 2 mps 620 mmHg 90%
    05:00 -7°C° 0 mm 2 mps 620 mmHg 90%
    06:00 -7°C° 0 mm 2 mps 620 mmHg 90%
    07:00 -4°C° 0 mm 2 mps 621 mmHg 88%
    08:00 -1°C° 0 mm 2 mps 623 mmHg 87%
    09:00 +4°C° 0 mm 1 mps 624 mmHg 85%
    10:00 +3°C° 0 mm 2 mps 624 mmHg 83%
    11:00 +4°C° 0 mm 2 mps 625 mmHg 81%
    12:00 +5°C° 0 mm 2 mps 625 mmHg 79%
    13:00 +6°C° 0 mm 1 mps 625 mmHg 78%
    14:00 +6°C° 0 mm 1 mps 624 mmHg 77%
    15:00 +6°C° 0 mm 1 mps 624 mmHg 77%
    16:00 +4°C° 0 mm 1 mps 623 mmHg 80%
    17:00 +2°C° 0 mm 1 mps 622 mmHg 84%
    18:00 -1°C° 0 mm 1 mps 621 mmHg 88%
    19:00 -2°C° 0 mm 1 mps 621 mmHg 84%
    20:00 -3°C° 0 mm 1 mps 621 mmHg 80%
    21:00 -5°C° 0 mm 2 mps 621 mmHg 76%
    22:00 -5°C° 0 mm 2 mps 621 mmHg 77%
    23:00 -5°C° 0 mm 2 mps 621 mmHg 77%

    Tomorrow, 27 March, Monday

    Time Temperature Precipitation Wind Pressure Humidity
    00:00 -5°C° 0 mm 2 mps 621 mmHg 78%
    01:00 -4°C° 0 mm 2 mps 621 mmHg 78%
    02:00 -4°C° 0 mm 2 mps 621 mmHg 78%
    03:00 -3°C° 0 mm 2 mps 621 mmHg 78%
    04:00 -3°C° 0 mm 2 mps 621 mmHg 79%
    05:00 -3°C° 0 mm 2 mps 621 mmHg 80%
    06:00 -3°C° 0 mm 2 mps 622 mmHg 81%
    07:00 -1°C° 0.1 mm 2 mps 623 mmHg 79%
    08:00 +2°C° 0.1 mm 2 mps 624 mmHg 77%
    09:00 +4°C° 0.1 mm 2 mps 625 mmHg 75%
    10:00 +4°C° 0.4 mm 2 mps 625 mmHg 76%
    11:00 +3°C° 0.4 mm 3 mps 625 mmHg 77%
    12:00 +3°C° 0.4 mm 3 mps 626 mmHg 78%
    13:00 +4°C° 0.1 mm 2 mps 626 mmHg 76%
    14:00 +5°C° 0.1 mm 2 mps 626 mmHg 74%
    15:00 +6°C° 0.1 mm 2 mps 626 mmHg 72%
    16:00 +4°C° 0 mm 2 mps 626 mmHg 77%
    17:00 +4°C° 0 mm 1 mps 625 mmHg 82%
    18:00 +2°C° 0 mm 1 mps 625 mmHg 87%
    19:00 +1°C° 0 mm 1 mps 625 mmHg 88%
    20:00 -1°C° 0 mm 1 mps 625 mmHg 89%
    21:00 -2°C° 0 mm 1 mps 625 mmHg 90%
    22:00 -3°C° 0 mm 1 mps 624 mmHg 89%
    23:00 -3°C° 0 mm 1 mps 624 mmHg 88%

    Day after tomorrow, 28 March, Tuesday

    Time Temperature Precipitation Wind Pressure Humidity
    00:00 -3°C° 0 mm 1 mps 624 mmHg 87%
    01:00 -3°C° 0 mm 1 mps 624 mmHg 85%
    02:00 -3°C° 0 mm 1 mps 624 mmHg 84%
    03:00 -4°C° 0 mm 1 mps 624 mmHg 83%
    04:00 -4°C° 0 mm 1 mps 624 mmHg 83%
    05:00 -4°C° 0 mm 1 mps 624 mmHg 82%
    06:00 -4°C° 0 mm 1 mps 624 mmHg 82%
    07:00 -1°C° 0 mm 1 mps 626 mmHg 78%
    08:00 +3°C° 0 mm 1 mps 628 mmHg 73%
    09:00 +5°C° 0 mm 0 mps 629 mmHg 69%
    10:00 +7°C° 0 mm 1 mps 630 mmHg 68%
    11:00 +8°C° 0 mm 1 mps 630 mmHg 67%
    12:00 +9°C° 0 mm 1 mps 630 mmHg 65%
    13:00 +9°C° 0 mm 1 mps 630 mmHg 66%
    14:00 +9°C° 0 mm 1 mps 630 mmHg 66%
    15:00 +9°C° 0 mm 1 mps 630 mmHg 66%
    16:00 +7°C° 0 mm 1 mps 629 mmHg 73%
    17:00 +5°C° 0 mm 1 mps 628 mmHg 80%
    18:00 +3°C° 0 mm 1 mps 628 mmHg 87%
    19:00 +2°C° 0 mm 1 mps 627 mmHg 90%
    20:00 0°C° 0 mm 1 mps 627 mmHg 92%
    21:00 -2°C° 0 mm 0 mps 627 mmHg 94%
    22:00 -3°C° 0 mm 0 mps 626 mmHg 94%
    23:00 -3°C° 0 mm 0 mps 626 mmHg 93%

    29 March, Wednesday

    Time Temperature Precipitation Wind Pressure Humidity
    00:00 -3°C° 0 mm 0 mps 626 mmHg 93%
    01:00 -3°C° 0 mm 0 mps 626 mmHg 93%
    02:00 -4°C° 0 mm 0 mps 626 mmHg 92%
    03:00 -4°C° 0 mm 0 mps 625 mmHg 92%
    04:00 -4°C° 0 mm 0 mps 625 mmHg 91%
    05:00 -4°C° 0 mm 0 mps 625 mmHg 89%
    06:00 -4°C° 0 mm 0 mps 625 mmHg 88%
    07:00 0°C° 0 mm 0 mps 627 mmHg 79%
    08:00 +4°C° 0 mm 0 mps 629 mmHg 70%
    09:00 +8°C° 0 mm 0 mps 631 mmHg 61%
    10:00 +10°C° 0 mm 1 mps 631 mmHg 59%
    11:00 +11°C° 0 mm 1 mps 631 mmHg 57%
    12:00 +12°C° 0 mm 2 mps 631 mmHg 55%
    13:00 +12°C° 0 mm 2 mps 631 mmHg 55%
    14:00 +12°C° 0 mm 2 mps 631 mmHg 56%
    15:00 +12°C° 0 mm 2 mps 630 mmHg 56%
    16:00 +9°C° 0 mm 2 mps 629 mmHg 65%
    17:00 +7°C° 0 mm 1 mps 628 mmHg 73%
    18:00 +5°C° 0 mm 1 mps 627 mmHg 82%
    19:00 +4°C° 0 mm 1 mps 627 mmHg 83%
    20:00 +2°C° 0 mm 1 mps 627 mmHg 85%
    21:00 +1°C° 0 mm 1 mps 627 mmHg 86%
    22:00 +1°C° 0 mm 1 mps 626 mmHg 86%
    23:00 +1°C° 0 mm 1 mps 626 mmHg 85%

    30 March, Thursday

    Time Temperature Precipitation Wind Pressure Humidity
    00:00 +1°C° 0 mm 1 mps 626 mmHg 85%
    01:00 +1°C° 0 mm 1 mps 626 mmHg 84%
    02:00 +1°C° 0 mm 1 mps 626 mmHg 84%
    03:00 0°C° 0 mm 1 mps 625 mmHg 83%
    04:00 0°C° 0 mm 1 mps 625 mmHg 82%
    05:00 +1°C° 0 mm 1 mps 625 mmHg 81%
    06:00 +1°C° 0 mm 1 mps 625 mmHg 80%
    07:00 +4°C° 0 mm 1 mps 627 mmHg 73%
    08:00 +7°C° 0 mm 1 mps 628 mmHg 66%
    09:00 +10°C° 0 mm 1 mps 629 mmHg 59%
    10:00 +10°C° 0 mm 2 mps 629 mmHg 57%
    11:00 +12°C° 0 mm 2 mps 630 mmHg 56%
    12:00 +12°C° 0 mm 3 mps 630 mmHg 54%
    13:00 +12°C° 0 mm 3 mps 629 mmHg 55%
    14:00 +12°C° 0 mm 3 mps 629 mmHg 57%
    15:00 +12°C° 0 mm 3 mps 629 mmHg 58%
    16:00 +10°C° 0 mm 2 mps 628 mmHg 67%
    17:00 +8°C° 0 mm 2 mps 627 mmHg 76%
    18:00 +5°C° 0 mm 2 mps 626 mmHg 85%
    19:00 +4°C° 0 mm 2 mps 626 mmHg 86%
    20:00 +4°C° 0 mm 2 mps 626 mmHg 88%
    21:00 +3°C° 0 mm 2 mps 626 mmHg 89%
    22:00 +3°C° 0 mm 2 mps 625 mmHg 89%
    23:00 +3°C° 0 mm 2 mps 625 mmHg 88%

    31 March, Friday

    Time Temperature Precipitation Wind Pressure Humidity
    00:00 +2°C° 0 mm 2 mps 625 mmHg 87%
    01:00 +2°C° 0 mm 2 mps 625 mmHg 86%
    02:00 +3°C° 0 mm 1 mps 624 mmHg 85%
    03:00 +3°C° 0 mm 1 mps 624 mmHg 84%
    04:00 +3°C° 0 mm 1 mps 624 mmHg 84%
    05:00 +3°C° 0 mm 1 mps 624 mmHg 84%
    06:00 +3°C° 0 mm 1 mps 624 mmHg 84%
    07:00 +4°C° 0 mm 2 mps 625 mmHg 77%
    08:00 +6°C° 0 mm 2 mps 626 mmHg 70%
    09:00 +8°C° 0 mm 2 mps 626 mmHg 63%
    10:00 +9°C° 0.1 mm 3 mps 626 mmHg 62%
    11:00 +10°C° 0.1 mm 3 mps 626 mmHg 61%
    12:00 +11°C° 0.1 mm 4 mps 626 mmHg 60%
    13:00 +10°C° 1 mm 4 mps 626 mmHg 64%
    14:00 +8°C° 1 mm 4 mps 625 mmHg 67%
    15:00 +9°C° 1 mm 3 mps 625 mmHg 71%
    16:00 +7°C° 1.5 mm 3 mps 624 mmHg 77%
    17:00 +6°C° 1.5 mm 2 mps 624 mmHg 84%
    18:00 +6°C° 1.5 mm 1 mps 623 mmHg 90%
    19:00 +5°C° 0.6 mm 1 mps 623 mmHg 92%
    20:00 +4°C° 0.6 mm 1 mps 623 mmHg 93%
    21:00 +3°C° 0.6 mm 1 mps 623 mmHg 95%
    22:00 +3°C° 0.1 mm 1 mps 623 mmHg 95%
    23:00 +2°C° 0.1 mm 1 mps 623 mmHg 95%
    Show more